H1 CPF 2 NER 2023 3 8 9 067 01 glonass137 H2 1705501 9137 42939 2023 3 8 0 0 0 2023 3 11 23 45 0 900 1 1 0 0 0 1 H9 10 0 60011 0.00000 0 13863455.548 17321813.685 -12595542.927 10 0 60011 900.00000 0 14531879.100 18535965.929 -9807649.898 10 0 60011 1800.00000 0 15116092.432 19387222.524 -6829355.824 10 0 60011 2700.00000 0 15559702.105 19877505.337 -3718490.669 10 0 60011 3600.00000 0 15809528.179 20021401.833 -535447.621 10 0 60011 4500.00000 0 15818020.052 19845361.196 2657988.989 10 0 60011 5400.00000 0 15545449.329 19386408.095 5799842.241 10 0 60011 6300.00000 0 14961786.878 18690429.065 8829144.240 10 0 60011 7200.00000 0 14048184.475 17810104.342 11687117.343 10 0 60011 8100.00000 0 12797998.072 16802572.700 14318312.088 10 0 60011 9000.00000 0 11217308.898 15726927.853 16671679.900 10 0 60011 9900.00000 0 9324919.668 14641651.877 18701559.981 10 0 60011 10800.00000 0 7151824.980 13602093.439 20368561.662 10 0 60011 11700.00000 0 4740176.887 12658096.604 21640325.580 10 0 60011 12600.00000 0 2141787.556 11851879.439 22492149.397 10 0 60011 13500.00000 0 -583769.987 11216251.133 22907466.382 10 0 60011 14400.00000 0 -3371385.358 10773242.079 22878167.885 10 0 60011 15300.00000 0 -6152867.504 10533204.181 22404763.554 10 0 60011 16200.00000 0 -8859533.798 10494419.014 21496376.077 10 0 60011 17100.00000 0 -11424825.189 10643230.336 20170570.181 10 0 60011 18000.00000 0 -13786839.683 10954695.563 18453018.608 10 0 60011 18900.00000 0 -15890679.634 11393729.105 16377010.848 10 0 60011 19800.00000 0 -17690515.723 11916689.759 13982813.321 10 0 60011 20700.00000 0 -19151282.002 12473345.560 11316892.698 10 0 60011 21600.00000 0 -20249931.506 13009133.373 8431016.802 10 0 60011 22500.00000 0 -20976200.176 13467617.779 5381250.138 10 0 60011 23400.00000 0 -21332847.279 13793045.070 2226863.465 10 0 60011 24300.00000 0 -21335362.551 13932883.797 -970821.252 10 0 60011 25200.00000 0 -21011152.781 13840243.654 -4149627.613 10 0 60011 26100.00000 0 -20398242.617 13476069.337 -7247739.369 10 0 60011 27000.00000 0 -19543544.997 12811015.526 -10204908.397 10 0 60011 27900.00000 0 -18500774.882 11826922.529 -12963631.860 10 0 60011 28800.00000 0 -17328095.032 10517829.121 -15470274.888 10 0 60011 29700.00000 0 -16085593.836 8890478.721 -17676116.464 10 0 60011 30600.00000 0 -14832702.093 6964296.558 -19538297.920 10 0 60011 31500.00000 0 -13625657.975 4770837.799 -21020655.492 10 0 60011 32400.00000 0 -12515127.069 2352728.939 -22094421.022 10 0 60011 33300.00000 0 -11544077.490 -237854.084 -22738777.529 10 0 60011 34200.00000 0 -10745999.070 -2941108.176 -22941259.378 10 0 60011 35100.00000 0 -10143540.886 -5691846.328 -22697989.784 10 0 60011 36000.00000 0 -9747623.598 -8421969.088 -22013751.554 10 0 60011 36900.00000 0 -9557063.068 -11063062.097 -20901890.072 10 0 60011 37800.00000 0 -9558720.209 -13549012.385 -19384050.668 10 0 60011 38700.00000 0 -9728169.912 -15818535.412 -17489755.577 10 0 60011 39600.00000 0 -10030860.164 -17817508.457 -15255828.684 10 0 60011 40500.00000 0 -10423711.919 -19501014.090 -12725679.140 10 0 60011 41400.00000 0 -10857091.743 -20835009.443 -9948457.572 10 0 60011 42300.00000 0 -11277073.642 -21797552.515 -6978101.208 10 0 60011 43200.00000 0 -11627894.230 -22379535.261 -3872286.358 10 0 60011 44100.00000 0 -11854497.282 -22584893.744 -691308.611 10 0 60011 45000.00000 0 -11905059.874 -22430287.514 2503087.414 10 0 60011 45900.00000 0 -11733393.084 -21944262.581 5648905.886 10 0 60011 46800.00000 0 -11301115.527 -21165933.958 8685101.793 10 0 60011 47700.00000 0 -10579507.507 -20143243.809 11552763.699 10 0 60011 48600.00000 0 -9550967.092 -18930868.939 14196254.296 10 0 60011 49500.00000 0 -8210006.055 -17587865.836 16564286.743 10 0 60011 50400.00000 0 -6563742.978 -16175152.339 18610916.164 10 0 60011 51300.00000 0 -4631871.784 -14752931.509 20296427.455 10 0 60011 52200.00000 0 -2446105.801 -13378165.532 21588102.702 10 0 60011 53100.00000 0 -49119.273 -12102205.104 22460853.779 10 0 60011 54000.00000 0 2506970.960 -10968673.155 22897708.345 10 0 60011 54900.00000 0 5162521.886 -10011690.949 22890140.114 10 0 60011 55800.00000 0 7852600.544 -9254520.410 22438237.121 10 0 60011 56700.00000 0 10509448.483 -8708679.024 21550704.608 10 0 60011 57600.00000 0 13065073.301 -8373564.161 20244702.102 10 0 60011 58500.00000 0 15453860.560 -8236602.312 18545517.275 10 0 60011 59400.00000 0 17615098.255 -8273916.930 16486082.185 10 0 60011 60300.00000 0 19495309.355 -8451486.738 14106340.455 10 0 60011 61200.00000 0 21050295.461 -8726745.768 11452476.936 10 0 60011 62100.00000 0 22246806.469 -9050557.589 8576024.182 10 0 60011 63000.00000 0 23063766.444 -9369480.231 5532862.638 10 0 60011 63900.00000 0 23493004.346 -9628225.716 2382133.879 10 0 60011 64800.00000 0 23539459.009 -9772209.617 -814911.836 10 0 60011 65700.00000 0 23220849.872 -9750081.970 -3996110.883 10 0 60011 66600.00000 0 22566827.591 -9516131.442 -7099600.569 10 0 60011 67500.00000 0 21617640.704 -9032459.910 -10065028.015 10 0 60011 68400.00000 0 20422375.022 -8270834.274 -12834729.386 10 0 60011 69300.00000 0 19036840.541 -7214136.014 -15354855.765 10 0 60011 70200.00000 0 17521195.473 -5857346.134 -17576423.312 10 0 60011 71100.00000 0 15937407.945 -4208022.826 -19456266.944 10 0 60011 72000.00000 0 14346662.537 -2286250.714 -20957878.963 10 0 60011 72900.00000 0 12806820.845 -124062.829 -22052116.497 10 0 60011 73800.00000 0 11370042.624 2235641.350 -22717764.415 10 0 60011 74700.00000 0 10080666.982 4740637.368 -22941943.244 10 0 60011 75600.00000 0 8973441.875 7331313.158 -22720354.709 10 0 60011 76500.00000 0 8072175.272 9942922.285 -22057360.647 10 0 60011 77400.00000 0 7388863.545 12508059.860 -20965894.132 10 0 60011 78300.00000 0 6923332.486 14959258.753 -19467204.808 10 0 60011 79200.00000 0 6663404.890 17231598.735 -17590443.505 10 0 60011 80100.00000 0 6585586.532 19265220.541 -15372094.147 10 0 60011 81000.00000 0 6656240.649 21007640.823 -12855263.930 10 0 60011 81900.00000 0 6833200.604 22415772.148 -10088845.367 10 0 60011 82800.00000 0 7067751.942 23457564.398 -7126566.387 10 0 60011 83700.00000 0 7306899.608 24113199.701 -4025946.858 10 0 60011 84600.00000 0 7495824.017 24375791.635 -847181.783 10 0 60011 85500.00000 0 7580421.781 24251560.120 2348027.000 10 0 60012 0.00000 0 7509823.286 23759475.468 5497667.560 10 0 60012 900.00000 0 7238780.293 22930386.831 8540621.347 10 0 60012 1800.00000 0 6729822.372 21805672.947 11417845.710 10 0 60012 2700.00000 0 5955090.558 20435471.371 14073518.131 10 0 60012 3600.00000 0 4897770.329 18876561.340 16456115.892 10 0 60012 4500.00000 0 3553062.835 17189988.953 18519412.129 10 0 60012 5400.00000 0 1928652.589 15438534.139 20223369.085 10 0 60012 6300.00000 0 44650.901 13684125.152 21534911.747 10 0 60012 7200.00000 0 -2066983.896 11985308.368 22428567.289 10 0 60012 8100.00000 0 -4363526.601 10394878.564 22886958.450 10 0 60012 9000.00000 0 -6793022.180 8957768.097 22901141.570 10 0 60012 9900.00000 0 -9296217.127 7709282.481 22470782.855 10 0 60012 10800.00000 0 -11808806.241 6673755.469 21604169.373 10 0 60012 11700.00000 0 -14263902.698 5863679.275 20318054.210 10 0 60012 12600.00000 0 -16594629.733 5279345.847 18637338.200 10 0 60012 13500.00000 0 -18736726.964 4909013.817 16594593.718 10 0 60012 14400.00000 0 -20631063.383 4729593.781 14229438.919 10 0 60012 15300.00000 0 -22225952.512 4707822.832 11587773.848 10 0 60012 16200.00000 0 -23479173.115 4801878.580 8720892.573 10 0 60012 17100.00000 0 -24359610.860 4963364.254 5684488.160 10 0 60012 18000.00000 0 -24848451.929 5139580.549 2537569.682 10 0 60012 18900.00000 0 -24939878.286 5275987.558 -658687.552 10 0 60012 19800.00000 0 -24641235.217 5318751.818 -3842135.806 10 0 60012 20700.00000 0 -23972664.047 5217269.649 -6950868.888 10 0 60012 21600.00000 0 -22966215.593 4926558.915 -9924431.909 10 0 60012 22500.00000 0 -21664481.907 4409416.761 -12705002.552 10 0 60012 23400.00000 0 -20118804.300 3638250.899 -15238520.113 10 0 60012 24300.00000 0 -18387133.465 2596505.882 -17475739.849 10 0 60012 25200.00000 0 -16531632.110 1279623.042 -19373191.813 10 0 60012 26100.00000 0 -14616121.163 -304507.382 -20894025.468 10 0 60012 27000.00000 0 -12703476.885 -2135621.937 -22008723.856 10 0 60012 27900.00000 0 -10853087.956 -4181685.206 -22695673.813 10 0 60012 28800.00000 0 -9118478.739 -6399992.267 -22941581.654 10 0 60012 29700.00000 0 -7545197.608 -8738727.050 -22741726.776 10 0 60012 30600.00000 0 -6169057.819 -11138912.243 -22100048.773 10 0 60012 31500.00000 0 -5014803.464 -13536670.107 -21029066.757 10 0 60012 32400.00000 0 -4095255.081 -15865700.556 -19549632.722 10 0 60012 33300.00000 0 -3410969.342 -18059873.894 -17690523.854 10 0 60012 34200.00000 0 -2950425.747 -20055830.633 -15487881.687 10 0 60012 35100.00000 0 -2690731.111 -21795480.569 -12984508.909 10 0 60012 36000.00000 0 -2598811.021 -23228297.304 -10229037.305 10 0 60012 36900.00000 0 -2633036.988 -24313312.857 -7274982.889 10 0 60012 37800.00000 0 -2745219.758 -25020729.448 -4179706.515 10 0 60012 38700.00000 0 -2882883.843 -25333081.490 -1003300.117 10 0 60012 39600.00000 0 -2991726.566 -25245899.548 2192579.655 10 0 60012 40500.00000 0 -3018157.109 -24767848.918 5345907.632 10 0 60012 41400.00000 0 -2911807.795 -23920337.450 8395492.809 10 0 60012 42300.00000 0 -2627911.013 -22736609.424 11282164.002 10 0 60012 43200.00000 0 -2129440.948 -21260363.801 13949915.485 10 0 60012 44100.00000 0 -1388929.230 -19543954.885 16346990.490 10 0 60012 45000.00000 0 -389877.373 -17646250.848 18426881.781 10 0 60012 45900.00000 0 872294.226 -15630239.526 20149230.308 10 0 60012 46800.00000 0 2389801.520 -13560481.287 21480604.981 10 0 60012 47700.00000 0 4142576.098 -11500514.869 22395148.955 10 0 60012 48600.00000 0 6098866.483 -9510323.837 22875080.354 10 0 60012 49500.00000 0 8216337.796 -7643968.570 22911038.069 10 0 60012 50400.00000 0 10443625.368 -5947481.798 22502266.047 10 0 60012 51300.00000 0 12722279.021 -4457114.615 21656632.433 10 0 60012 52200.00000 0 14989018.405 -3198005.424 20390482.812 10 0 60012 53100.00000 0 17178206.604 -2183326.686 18728329.863 10 0 60012 54000.00000 0 19224439.883 -1413944.543 16702384.714 10 0 60012 54900.00000 0 21065146.247 -878605.003 14351938.264 10 0 60012 55800.00000 0 22643084.642 -554638.384 11722603.729 10 0 60012 56700.00000 0 23908640.399 -409151.887 8865434.451 10 0 60012 57600.00000 0 24821820.681 -400659.560 5835933.668 10 0 60012 58500.00000 0 25353865.884 -481080.310 2692975.311 10 0 60012 59400.00000 0 25488408.953 -598018.812 -502343.036 10 0 60012 60300.00000 0 25222133.462 -697232.055 -3687892.364 10 0 60012 61200.00000 0 24564902.407 -725176.134 -6801725.785 10 0 60012 62100.00000 0 23539352.075 -631524.429 -9783289.083 10 0 60012 63000.00000 0 22179968.012 -371549.424 -12574603.932 10 0 60012 63900.00000 0 20531682.052 91733.789 -15121400.040 10 0 60012 64800.00000 0 18648049.563 785754.030 -17374173.659 10 0 60012 65700.00000 0 16589083.752 1726978.290 -19289151.578 10 0 60012 66600.00000 0 14418838.123 2919973.966 -20829141.738 10 0 60012 67500.00000 0 12202838.548 4356979.493 -21964254.131 10 0 60012 68400.00000 0 10005472.374 6018002.270 -22672478.353 10 0 60012 69300.00000 0 7887443.529 7871440.544 -22940107.023 10 0 60012 70200.00000 0 5903399.397 9875203.931 -22761997.446 10 0 60012 71100.00000 0 4099827.767 11978286.374 -22141666.907 10 0 60012 72000.00000 0 2513310.642 14122726.446 -21091220.159 10 0 60012 72900.00000 0 1169206.562 16245873.695 -19631110.792 10 0 60012 73800.00000 0 80815.102 18282867.021 -17789741.245 10 0 60012 74700.00000 0 -750942.992 20169222.029 -15602909.195 10 0 60012 75600.00000 0 -1337318.159 21843419.792 -13113111.005 10 0 60012 76500.00000 0 -1701007.044 23249389.218 -10368715.581 10 0 60012 77400.00000 0 -1874942.036 24338779.508 -7423024.574 10 0 60012 78300.00000 0 -1900647.487 25072927.920 -4333237.116 10 0 60012 79200.00000 0 -1826232.975 25424440.664 -1159339.156 10 0 60012 80100.00000 0 -1704109.205 25378320.877 2037060.883 10 0 60012 81000.00000 0 -1588523.718 24932596.640 5193927.421 10 0 60012 81900.00000 0 -1533021.183 24098422.845 8250000.637 10 0 60012 82800.00000 0 -1587936.043 22899652.812 11145983.507 10 0 60012 83700.00000 0 -1798023.902 21371897.709 13825689.904 10 0 60012 84600.00000 0 -2200332.049 19561113.141 16237131.613 10 0 60012 85500.00000 0 -2822399.389 17521771.978 18333523.380 10 0 60013 0.00000 0 -3680862.086 15314699.726 20074186.779 10 0 60013 900.00000 0 -4780524.773 13004661.219 21425336.714 10 0 60013 1800.00000 0 -6113936.035 10657801.735 22360733.545 10 0 60013 2700.00000 0 -7661488.551 8339044.552 22862191.789 10 0 60013 3600.00000 0 -9392039.869 6109555.413 22919933.456 10 0 60013 4500.00000 0 -11264029.651 4024377.492 22532780.319 10 0 60013 5400.00000 0 -13227048.039 2130334.582 21708181.146 10 0 60013 6300.00000 0 -15223791.056 464288.980 20462073.021 10 0 60013 7200.00000 0 -17192322.658 -948174.136 18818578.907 10 0 60013 8100.00000 0 -19068550.018 -2093581.668 16809546.590 10 0 60013 9000.00000 0 -20788809.416 -2970892.734 14473937.129 10 0 60013 9900.00000 0 -22292455.005 -3591291.148 11857073.929 10 0 60013 10800.00000 0 -23524342.230 -3977459.640 9009766.325 10 0 60013 11700.00000 0 -24437101.649 -4162366.915 5987324.248 10 0 60013 12600.00000 0 -24993107.262 -4187619.355 2848482.934 10 0 60013 13500.00000 0 -25166056.143 -4101447.675 -345741.297 10 0 60013 14400.00000 0 -24942092.253 -3956414.463 -3533241.608 10 0 60013 15300.00000 0 -24320426.535 -3806940.540 -6652033.718 10 0 60013 16200.00000 0 -23313426.634 -3706755.864 -9641467.187 10 0 60013 17100.00000 0 -21946172.081 -3706383.982 -12443410.553 10 0 60013 18000.00000 0 -20255493.393 -3850767.579 -15003386.523 10 0 60013 18900.00000 0 -18288535.395 -4177136.606 -17271634.594 10 0 60013 19800.00000 0 -16100905.077 -4713210.068 -19204080.110 10 0 60013 20700.00000 0 -13754481.725 -5475808.224 -20763190.824 10 0 60013 21600.00000 0 -11314981.029 -6469934.516 -21918704.472 10 0 60013 22500.00000 0 -8849374.936 -7688366.545 -22648213.598 10 0 60013 23400.00000 0 -6423274.761 -9111773.911 -22937596.752 10 0 60013 24300.00000 0 -4098386.269 -10709358.564 -22781288.211 10 0 60013 25200.00000 0 -1930142.088 -12439991.369 -22182381.522 10 0 60013 26100.00000 0 34390.773 -14253797.804 -21152565.227 10 0 60013 27000.00000 0 1758242.264 -16094126.913 -19711892.316 10 0 60013 27900.00000 0 3215838.653 -17899821.646 -17888388.008 10 0 60013 28800.00000 0 4393817.110 -19607695.974 -15717503.447 10 0 60013 29700.00000 0 5291323.042 -21155115.521 -13241425.853 10 0 60013 30600.00000 0 5919779.300 -22482573.964 -10508258.347 10 0 60013 31500.00000 0 6302138.459 -23536157.503 -7571085.286 10 0 60013 32400.00000 0 6471651.008 -24269794.257 -4486941.161 10 0 60013 33300.00000 0 6470202.589 -24647194.363 -1315703.089 10 0 60013 34200.00000 0 6346291.434 -24643399.401 1881071.491 10 0 60013 35100.00000 0 6152732.299 -24245876.133 5041339.195 10 0 60013 36000.00000 0 5944184.560 -23455108.626 8103773.836 10 0 60013 36900.00000 0 5774609.457 -22284663.822 11008954.797 10 0 60013 37800.00000 0 5694764.349 -20760727.691 13700517.567 10 0 60013 38700.00000 0 5749840.096 -18921131.176 16126244.224 10 0 60013 39600.00000 0 5977341.582 -16813906.379 18239072.932 10 0 60013 40500.00000 0 6405301.041 -14495432.909 19998007.258 10 0 60013 41400.00000 0 7050899.845 -12028251.185 21368908.184 10 0 60013 42300.00000 0 7919557.255 -9478633.177 22325153.937 10 0 60013 43200.00000 0 9004525.168 -6914010.923 22848155.347 10 0 60013 44100.00000 0 10287006.779 -4400368.890 22927717.083 10 0 60013 45000.00000 0 11736795.300 -1999707.691 22562237.930 10 0 60013 45900.00000 0 13313407.200 232316.391 21758746.158 10 0 60013 46800.00000 0 14967663.838 2248478.843 20532768.962 10 0 60013 47700.00000 0 16643656.512 4011715.309 18908037.974 10 0 60013 48600.00000 0 18281013.758 5496419.767 16916035.828 10 0 60013 49500.00000 0 19817376.854 6689259.039 14595391.779 10 0 60013 50400.00000 0 21190980.310 7589470.271 11991137.301 10 0 60013 51300.00000 0 22343229.362 8208629.601 9153835.465 10 0 60013 52200.00000 0 23221166.174 8569902.370 6138600.511 10 0 60013 53100.00000 0 23779720.640 8706807.122 3004026.492 10 0 60013 54000.00000 0 23983650.532 8661546.256 -188954.093 10 0 60013 54900.00000 0 23809088.516 8482974.655 -3378259.138 10 0 60013 55800.00000 0 23244630.053 8224293.055 -6501869.475 10 0 60013 56700.00000 0 22291915.576 7940564.757 -9499040.802 10 0 60013 57600.00000 0 20965681.712 7686161.773 -12311490.683 10 0 60013 58500.00000 0 19293278.823 7512249.513 -14884536.733 10 0 60013 59400.00000 0 17313674.756 7464417.373 -17168163.328 10 0 60013 60300.00000 0 15075986.309 7580556.252 -19117995.753 10 0 60013 61200.00000 0 12637599.813 7889073.381 -20696162.714 10 0 60013 62100.00000 0 10061959.334 8407520.388 -21872030.624 10 0 60013 63000.00000 0 7416114.712 9141692.900 -22622795.741 10 0 60013 63900.00000 0 4768131.511 10085239.985 -22933923.105 10 0 60013 64800.00000 0 2184470.361 11219800.180 -22799424.325 10 0 60013 65700.00000 0 -272555.785 12515658.736 -22221969.304 10 0 60013 66600.00000 0 -2547141.477 13932898.775 -21212830.163 10 0 60013 67500.00000 0 -4592068.475 15422998.416 -19791658.746 10 0 60013 68400.00000 0 -6370420.011 16930807.210 -17986102.130 10 0 60013 69300.00000 0 -7856859.477 18396819.330 -15831263.641 10 0 60013 70200.00000 0 -9038421.711 19759648.456 -13369019.720 10 0 60013 71100.00000 0 -9914785.356 20958600.756 -10647205.758 10 0 60013 72000.00000 0 -10498016.408 21936238.143 -7718686.590 10 0 60013 72900.00000 0 -10811795.232 22640824.215 -4640329.625 10 0 60013 73800.00000 0 -10890160.907 23028550.176 -1471900.524 10 0 60013 74700.00000 0 -10775826.979 23065447.078 1725096.996 10 0 60013 75600.00000 0 -10518140.692 22728903.912 4888614.568 10 0 60013 76500.00000 0 -10170772.615 22008727.553 7957262.481 10 0 60013 77400.00000 0 -9789234.881 20907699.764 10871499.347 10 0 60013 78300.00000 0 -9428333.265 19441607.592 13574785.027 10 0 60013 79200.00000 0 -9139660.967 17638745.419 16014674.534 10 0 60013 80100.00000 0 -8969240.055 15538909.048 18143831.935 10 0 60013 81000.00000 0 -8955410.107 13191923.239 19920944.929 10 0 60013 81900.00000 0 -9127053.170 10655763.401 21311522.923 10 0 60013 82800.00000 0 -9502229.935 7994348.909 22288563.571 10 0 60013 83700.00000 0 -10087284.813 5275098.932 22833075.393 10 0 60013 84600.00000 0 -10876458.051 2566351.371 22934446.691 10 0 60013 85500.00000 0 -11852021.868 -65248.876 22590653.771 10 0 60014 0.00000 0 -12984935.702 -2557284.674 21808304.493 10 0 60014 900.00000 0 -14235994.723 -4853921.456 20602515.486 10 0 60014 1800.00000 0 -15557422.983 -6907981.807 18996626.003 10 0 60014 2700.00000 0 -16894847.380 -8682658.755 17021751.899 10 0 60014 3600.00000 0 -18189569.036 -10152793.800 14716188.473 10 0 60014 4500.00000 0 -19381037.866 -11305668.307 12124672.683 10 0 60014 5400.00000 0 -20409426.623 -12141275.583 9297518.385 10 0 60014 6300.00000 0 -21218196.128 -12672062.844 6289640.910 10 0 60014 7200.00000 0 -21756543.373 -12922154.543 3159489.729 10 0 60014 8100.00000 0 -21981628.747 -12926090.460 -32089.968 10 0 60014 9000.00000 0 -21860487.684 -12727132.545 -3223044.312 10 0 60014 9900.00000 0 -21371545.178 -12375212.872 -6351322.700 10 0 60014 10800.00000 0 -20505668.320 -11924610.366 -9356090.343 10 0 60014 11700.00000 0 -19266711.546 -11431455.522 -12178917.042 10 0 60014 12600.00000 0 -17671530.794 -10951169.621 -14764918.321 10 0 60014 13500.00000 0 -15749465.266 -10535947.618 -17063826.155 10 0 60014 14400.00000 0 -13541307.970 -10232391.865 -19030968.106 10 0 60014 15300.00000 0 -11097807.778 -10079397.235 -20628135.713 10 0 60014 16200.00000 0 -8477765.318 -10106377.338 -21824325.400 10 0 60014 17100.00000 0 -5745801.896 -10331906.879 -22596337.869 10 0 60014 18000.00000 0 -2969894.177 -10762837.508 -22929224.777 10 0 60014 18900.00000 0 -218776.849 -11393924.404 -22816574.583 10 0 60014 19800.00000 0 2440679.253 -12207979.318 -22260632.530 10 0 60014 20700.00000 0 4946005.209 -13176543.646 -21272252.829 10 0 60014 21600.00000 0 7241483.647 -14261053.273 -19870684.263 10 0 60014 22500.00000 0 9280213.298 -15414446.343 -18083193.527 10 0 60014 23400.00000 0 11025803.699 -16583146.502 -15944533.584 10 0 60014 24300.00000 0 12453630.772 -17709338.388 -13496267.300 10 0 60014 25200.00000 0 13551602.296 -18733439.843 -10785959.320 10 0 60014 26100.00000 0 14320402.704 -19596666.932 -7866251.765 10 0 60014 27000.00000 0 14773208.420 -20243583.861 -4793841.643 10 0 60014 27900.00000 0 14934887.079 -20624530.451 -1628379.785 10 0 60014 28800.00000 0 14840715.560 -20697824.815 1568687.171 10 0 60014 29700.00000 0 14534671.946 -20431648.322 4735309.120 10 0 60014 30600.00000 0 14067374.327 -19805533.221 7810035.879 10 0 60014 31500.00000 0 13493754.103 -18811389.986 10733208.059 10 0 60014 32400.00000 0 12870562.461 -17454030.754 13448112.313 10 0 60014 33300.00000 0 12253815.524 -15751166.290 15902078.621 10 0 60014 34200.00000 0 11696286.034 -13732875.966 18047498.535 10 0 60014 35100.00000 0 11245147.296 -11440572.106 19842745.024 10 0 60014 36000.00000 0 10939868.529 -8925501.023 21252976.587 10 0 60014 36900.00000 0 10810450.102 -6246842.280 22250810.510 10 0 60014 37800.00000 0 10876072.871 -3469484.143 22816852.770 10 0 60014 38700.00000 0 11144218.450 -661566.580 22940074.644 10 0 60014 39600.00000 0 11610297.685 2108107.285 22618028.926 10 0 60014 40500.00000 0 12257803.361 4772684.939 21856901.523 10 0 60014 41400.00000 0 13058981.391 7269796.039 20671397.113 10 0 60014 42300.00000 0 13975993.028 9543897.536 19084460.588 10 0 60014 43200.00000 0 14962520.101 11548335.716 17126838.927 10 0 60014 44100.00000 0 15965746.533 13247040.040 14836491.236 10 0 60014 45000.00000 0 16928633.379 14615778.740 12257857.580 10 0 60014 45900.00000 0 17792392.003 15642924.229 9441000.119 10 0 60014 46800.00000 0 18499051.240 16329696.818 6440632.707 10 0 60014 47700.00000 0 18994010.077 16689876.972 3315057.619 10 0 60014 48600.00000 0 19228467.587 16748998.839 125030.120 10 0 60014 49500.00000 0 19161626.767 16543059.618 -3067426.734 10 0 60014 50400.00000 0 18762578.240 16116799.991 -6200233.363 10 0 60014 51300.00000 0 18011783.224 15521629.031 -9212466.752 10 0 60014 52200.00000 0 16902092.089 14813282.170 -12045550.969 10 0 60014 53100.00000 0 15439254.517 14049312.049 -14644401.209 10 0 60014 54000.00000 0 13641898.808 13286519.155 -16958498.518 10 0 60014 54900.00000 0 11540980.362 12578431.437 -18942873.946 10 0 60014 55800.00000 0 9178721.775 11972939.858 -20558982.842 10 0 60014 56700.00000 0 6607088.316 11510189.953 -21775452.431 10 0 60014 57600.00000 0 3885861.968 11220818.366 -22568688.469 10 0 60014 58500.00000 0 1080393.905 11124608.579 -22923329.664 10 0 60014 59400.00000 0 -1740871.480 11229622.193 -22832541.568 10 0 60014 60300.00000 0 -4508998.582 11531841.974 -22298144.751 10 0 60014 61200.00000 0 -7157181.071 12015341.339 -21330575.192 10 0 60014 62100.00000 0 -9623272.742 12652972.827 -19948677.964 10 0 60014 63000.00000 0 -11852124.433 13407546.305 -18179338.358 10 0 60014 63900.00000 0 -13797630.816 14233447.171 -16056957.610 10 0 60014 64800.00000 0 -15424402.962 15078626.291 -13622783.337 10 0 60014 65700.00000 0 -16708998.200 15886877.825 -10924107.509 10 0 60014 66600.00000 0 -17640657.128 16600308.895 -8013347.415 10 0 60014 67500.00000 0 -18221518.308 17161896.956 -4947027.409 10 0 60014 68400.00000 0 -18466302.884 17518026.906 -1784681.136 10 0 60014 69300.00000 0 -18401483.645 17620900.796 1412304.255 10 0 60014 70200.00000 0 -18063974.539 17430718.265 4581879.386 10 0 60014 71100.00000 0 -17499396.820 16917535.478 7662536.093 10 0 60014 72000.00000 0 -16759995.591 16062723.812 10594499.510 10 0 60014 72900.00000 0 -15902295.160 14859966.396 13320885.598 10 0 60014 73800.00000 0 -14984592.303 13315749.959 15788801.774 10 0 60014 74700.00000 0 -14064393.208 11449330.573 17950369.467 10 0 60014 75600.00000 0 -13195901.933 9292173.821 19763649.162 10 0 60014 76500.00000 0 -12427665.854 6886891.721 21193450.489 10 0 60014 77400.00000 0 -11800476.821 4285719.640 22212012.157 10 0 60014 78300.00000 0 -11345615.914 1548595.370 22799539.068 10 0 60014 79200.00000 0 -11083515.239 -1259081.035 22944586.584 10 0 60014 80100.00000 0 -11022892.848 -4068914.864 22644284.692 10 0 60014 81000.00000 0 -11160397.085 -6812110.582 21904397.694 10 0 60014 81900.00000 0 -11480775.498 -9422085.407 20739217.990 10 0 60014 82800.00000 0 -11957561.573 -11836995.056 19171295.476 10 0 60014 83700.00000 0 -12554250.870 -14002067.572 17231007.114 10 0 60014 84600.00000 0 -13225917.597 -15871648.824 14955974.217 10 0 60014 85500.00000 0 -13921203.982 -17410874.948 12390337.951 99